ROMMA est une association bénévole à but non lucratif. Votre soutien est indispensable : ADHERER à ROMMA ou FAIRE un DON

Chindrieux - (73, Savoie)

Chautagne (260 m)   Longitude: 05°50' E   Latitude: 45°49' N Station partenaire n°74
 

Détail journalier du     <<     >>

Température Precipitation Humidité Pression Vent Dir Rafale Dir. rafale Ensol.
Heure (°C) (mm) (%) (hPa) (km/h) (km/h) (min)
01:00 11.407210154NNE10NNE0
02:00 10.407510153NE6NE0
03:00 10.307710162NE5NE0
04:00 9.708010162NE6NE0
05:00 9.608110161NE6NE0
06:00 9.608110161NNE6NE0
07:00 9.708210172NNE6NNE0
08:00 9.8084101703NNE0
09:00 9.80.48910181NNE6NNE0
10:00 10.20.28910182NNE6NNE0
11:00 10.308710181NNE5NNE0
12:00 11.207910183NNE15SE0
13:00 11.307810183S8S0
14:00 12.107510183S15ONO0
15:00 12.107710195O16OSO0
16:00 12.807510184SO11ONO0
17:00 12.807610184SE11SSO0
18:00 12.707810184OSO13OSO10
19:00 12.407810182ONO10ONO0
20:00 12.6079101805ONO20
21:00 12.008210191ONO6ONO0
22:00 11.2082101903ONO0
23:00 10.708310191ONO6ONO0
minuit 9.8086101902ONO0

Graphique du 16-04-2019

 

Serveur OMMA